Weather History for CWPO - August, 2013

Change the Weather History Date:

Friday, August 23, 2013

  Actual Average Record
Temperature  
Mean Temperature 64 °F -  
Max Temperature 80 °F - - ()
Min Temperature 49 °F - - ()
Growing Degree Days 14 (Base 50)    
Moisture  
Dew Point 56 °F    
Average Humidity 71    
Maximum Humidity 91    
Minimum Humidity 41    
Precipitation  
Precipitation 0.00 in - - ()
Sea Level Pressure  
Sea Level Pressure 30.01 in    
Wind  
Wind Speed 9 mph ()    
Max Wind Speed 16 mph    
Max Gust Speed 18 mph    
T = Trace of Precipitation, MM = Missing Value Source: Averaged Metar Reports

Daily Weather History Graph

Daily Weather History Graph

Search for Another Location

Airport or City:

Trip Planner

Search our weather history database for the weather conditions in past years. The results will help you decide how hot, cold, wet, or windy it might be!

Date:

Astronomy

Aug. 23, 2013 Rise Set
Actual Time 6:39 AM CDT 8:35 PM CDT
Civil Twilight 6:05 AM CDT 9:09 PM CDT
Nautical Twilight 5:23 AM CDT 9:51 PM CDT
Astronomical Twilight 4:35 AM CDT 10:38 PM CDT
Moon 9:31 PM CDT 9:57 AM CDT
Length of Visible Light 15h 04m
Length of Day
13h 56m
Waning Gibbous, 91% of the Moon is Illuminated
Aug 23
Waning Gibbous
Aug 28
Last Quarter
Sep 5
New
Sep 12
First Quarter
Sep 19
Full

Hourly Weather History & Observations

Time (CDT) Temp. Heat Index Dew Point Humidity Pressure Visibility Wind Dir Wind Speed Gust Speed Precip Events Conditions
12:00 AM 53.1 °F - 46.4 °F 78% 30.14 in - SE 8.1 mph - N/A   Unknown
1:00 AM 53 °F - 47 °F 74% 30.13 in - SE 6.9 mph - -  
1:00 AM 52.5 °F - 47.1 °F 82% 30.13 in - SE 6.9 mph - N/A   Unknown
2:00 AM 51.4 °F - 47.5 °F 86% 30.12 in - SE 6.9 mph - N/A   Unknown
3:00 AM 52.0 °F - 47.7 °F 85% 30.11 in - SSE 6.9 mph - N/A   Unknown
4:00 AM 50 °F - 47 °F 86% 30.10 in - SSE 8.1 mph - -  
4:00 AM 50.2 °F - 47.1 °F 89% 30.10 in - SSE 8.1 mph - N/A   Unknown
5:00 AM 50.4 °F - 47.7 °F 90% 30.09 in - SE 6.9 mph - N/A   Unknown
6:00 AM 50.9 °F - 48.2 °F 90% 30.08 in - SSE 6.9 mph - N/A   Unknown
7:00 AM 51 °F - 49 °F 89% 30.08 in - SSE 6.9 mph - -  
7:00 AM 51.3 °F - 48.7 °F 91% 30.08 in - SSE 6.9 mph - N/A   Unknown
8:00 AM 55.8 °F - 50.7 °F 83% 30.08 in - SSE 9.2 mph - N/A   Unknown
9:00 AM 62.6 °F - 51.6 °F 67% 30.06 in - South 11.5 mph - N/A   Unknown
10:00 AM 69 °F - 54 °F 48% 30.04 in - SSE 10.4 mph - -  
10:00 AM 68.5 °F - 53.6 °F 59% 30.04 in - SSE 10.4 mph - N/A   Unknown
11:00 AM 72.7 °F - 53.1 °F 50% 30.02 in - SSE 13.8 mph - N/A   Unknown
12:00 PM 75.7 °F - 55.8 °F 50% 30.01 in - South 16.1 mph - N/A   Unknown
1:00 PM 78 °F - 59 °F 41% 29.99 in - SSE 16.1 mph - -  
1:00 PM 78.1 °F - 58.8 °F 51% 29.99 in - SSE 16.1 mph - N/A   Unknown
2:00 PM 78.6 °F - 60.4 °F 54% 29.96 in - SSE 16.1 mph - N/A   Unknown
3:00 PM 79.7 °F - 61.2 °F 53% 29.95 in - SSE 16.1 mph - N/A   Unknown
4:00 PM 78 °F - 63 °F 51% 29.93 in - SSE 13.8 mph - -  
4:00 PM 78.4 °F - 63.0 °F 59% 29.93 in - SSE 13.8 mph - N/A   Unknown
5:00 PM 80.1 °F 81.5 °F 63.1 °F 56% 29.91 in - SSE 15.0 mph - N/A   Unknown
6:00 PM 78.3 °F - 65.5 °F 65% 29.91 in - SSE 11.5 mph 18.4 mph N/A   Unknown
7:00 PM 77.2 °F - 66.9 °F 71% 29.89 in - SSE 8.1 mph - N/A   Unknown
8:00 PM 72.7 °F - 67.5 °F 84% 29.87 in - SE 6.9 mph - N/A   Unknown
9:00 PM 71.6 °F - 65.5 °F 81% 29.87 in - SSE 8.1 mph - N/A   Unknown
10:00 PM 69 °F - 65 °F 81% 29.86 in - SE 9.2 mph - -  
10:00 PM 69.1 °F - 64.6 °F 86% 29.86 in - SE 9.2 mph - N/A   Unknown
11:00 PM 68.7 °F - 63.3 °F 83% 29.85 in - SE 11.5 mph - N/A   Unknown